QPF
0.03 0.02 0.02 0.02 0.02 0.02 0.01 0.00 0.00 0.00 0.00 0.01 0.01 0.01 0.00 0.00 0.00 0.01 0.02 0.02 0.01 0.01 0.01 0.03 0.04 0.05 0.04 0.04 0.04 0.04 0.04 0.04 0.04 0.04 0.03 0.02 0.02 0.02 0.02 0.01 0.02 0.02 0.03 0.02 0.02 0.02 0.03 0.03 0.03
0.03 0.03 0.03 0.03 0.02 0.01 0.01 0.00 0.00 0.00 0.00 0.01 0.01 0.02 0.01 0.00 0.00 0.01 0.01 0.01 0.01 0.01 0.01 0.02 0.05 0.07 0.06 0.05 0.05 0.04 0.05 0.05 0.05 0.04 0.04 0.04 0.02 0.02 0.02 0.01 0.01 0.02 0.02 0.02 0.01 0.01 0.02 0.02 0.02
0.03 0.04 0.05 0.04 0.02 0.01 0.01 0.00 0.00 0.00 0.00 0.01 0.02 0.02 0.01 0.01 0.01 0.01 0.01 0.01 0.01 0.01 0.01 0.02 0.04 0.08 0.08 0.06 0.05 0.04 0.05 0.05 0.06 0.05 0.05 0.05 0.03 0.03 0.02 0.02 0.01 0.01 0.02 0.01 0.01 0.00 0.01 0.02 0.02
0.03 0.06 0.06 0.05 0.02 0.01 0.01 0.01 0.00 0.00 0.00 0.01 0.02 0.02 0.01 0.01 0.01 0.01 0.01 0.01 0.01 0.01 0.02 0.03 0.05 0.07 0.09 0.08 0.05 0.04 0.04 0.05 0.06 0.06 0.06 0.06 0.05 0.04 0.03 0.02 0.01 0.01 0.01 0.01 0.01 0.00 0.00 0.01 0.02
0.04 0.07 0.07 0.05 0.02 0.01 0.01 0.01 0.00 0.00 0.01 0.01 0.02 0.01 0.01 0.01 0.01 0.01 0.01 0.01 0.00 0.01 0.02 0.03 0.06 0.07 0.08 0.09 0.07 0.04 0.04 0.05 0.05 0.07 0.07 0.08 0.07 0.05 0.04 0.02 0.01 0.01 0.01 0.01 0.00 0.00 0.00 0.01 0.01
0.04 0.06 0.06 0.05 0.02 0.01 0.00 0.00 0.00 0.01 0.00 0.01 0.01 0.01 0.01 0.01 0.01 0.01 0.01 0.01 0.01 0.01 0.02 0.03 0.06 0.08 0.08 0.07 0.09 0.05 0.04 0.04 0.05 0.07 0.07 0.09 0.09 0.06 0.04 0.02 0.02 0.01 0.01 0.01 0.00 0.00 0.00 0.01 0.02
0.05 0.06 0.05 0.04 0.03 0.01 0.00 0.00 0.00 0.00 0.00 0.00 0.01 0.02 0.01 0.02 0.01 0.01 0.01 0.01 0.01 0.01 0.02 0.03 0.05 0.08 0.11 0.09 0.08 0.05 0.03 0.04 0.05 0.07 0.07 0.09 0.08 0.06 0.04 0.03 0.03 0.01 0.01 0.01 0.00 0.00 0.00 0.00 0.01
0.04 0.05 0.05 0.03 0.03 0.02 0.01 0.00 0.00 0.00 0.00 0.00 0.01 0.02 0.02 0.02 0.01 0.02 0.02 0.01 0.01 0.01 0.02 0.03 0.05 0.09 0.13 0.12 0.08 0.06 0.03 0.03 0.04 0.06 0.08 0.09 0.08 0.07 0.05 0.04 0.03 0.02 0.01 0.01 0.01 0.00 0.00 0.00 0.01
0.03 0.03 0.04 0.02 0.02 0.02 0.02 0.01 0.01 0.01 0.00 0.00 0.00 0.01 0.02 0.03 0.02 0.03 0.03 0.02 0.01 0.02 0.02 0.05 0.06 0.07 0.11 0.14 0.10 0.05 0.04 0.03 0.04 0.05 0.09 0.12 0.11 0.10 0.08 0.06 0.04 0.03 0.02 0.01 0.01 0.01 0.00 0.00 0.01
0.02 0.03 0.03 0.02 0.02 0.02 0.02 0.02 0.02 0.02 0.01 0.01 0.00 0.00 0.02 0.04 0.04 0.05 0.04 0.04 0.03 0.03 0.04 0.07 0.07 0.07 0.08 0.13 0.14 0.08 0.04 0.03 0.04 0.05 0.06 0.09 0.09 0.08 0.09 0.08 0.06 0.04 0.03 0.02 0.02 0.01 0.00 0.00 0.00
0.01 0.02 0.01 0.01 0.01 0.01 0.02 0.02 0.02 0.03 0.02 0.01 0.01 0.01 0.02 0.04 0.05 0.04 0.03 0.03 0.03 0.03 0.05 0.08 0.09 0.09 0.10 0.11 0.12 0.09 0.04 0.03 0.04 0.05 0.06 0.09 0.10 0.09 0.08 0.08 0.07 0.06 0.04 0.03 0.02 0.01 0.00 0.00 0.00
0.01 0.01 0.01 0.01 0.00 0.01 0.01 0.01 0.02 0.02 0.02 0.02 0.02 0.02 0.03 0.05 0.06 0.05 0.04 0.03 0.02 0.02 0.05 0.09 0.10 0.10 0.10 0.12 0.13 0.10 0.05 0.03 0.03 0.04 0.04 0.05 0.09 0.11 0.08 0.08 0.07 0.06 0.04 0.03 0.02 0.01 0.00 0.00 0.00
0.01 0.01 0.01 0.01 0.01 0.00 0.00 0.01 0.01 0.01 0.01 0.01 0.02 0.03 0.04 0.05 0.06 0.06 0.06 0.05 0.03 0.03 0.06 0.09 0.12 0.11 0.09 0.10 0.12 0.11 0.06 0.04 0.04 0.04 0.04 0.04 0.06 0.10 0.11 0.08 0.08 0.07 0.04 0.03 0.02 0.01 0.01 0.00 0.00
0.01 0.00 0.00 0.00 0.01 0.01 0.01 0.01 0.00 0.01 0.01 0.02 0.02 0.02 0.04 0.04 0.05 0.06 0.07 0.07 0.05 0.03 0.05 0.07 0.11 0.12 0.11 0.09 0.10 0.09 0.07 0.05 0.04 0.04 0.04 0.04 0.05 0.08 0.11 0.11 0.09 0.07 0.05 0.03 0.02 0.01 0.01 0.00 0.00
0.01 0.00 0.00 0.00 0.00 0.01 0.01 0.01 0.01 0.01 0.01 0.02 0.02 0.02 0.03 0.03 0.04 0.05 0.06 0.09 0.08 0.04 0.04 0.06 0.08 0.12 0.12 0.10 0.08 0.07 0.06 0.05 0.05 0.04 0.05 0.04 0.04 0.06 0.09 0.11 0.12 0.09 0.06 0.04 0.02 0.01 0.01 0.00 0.00
0.01 0.01 0.01 0.00 0.00 0.01 0.01 0.01 0.01 0.01 0.02 0.02 0.02 0.02 0.02 0.02 0.03 0.03 0.04 0.08 0.10 0.06 0.04 0.06 0.07 0.11 0.12 0.10 0.08 0.06 0.06 0.07 0.06 0.05 0.06 0.06 0.06 0.06 0.09 0.09 0.11 0.12 0.09 0.06 0.03 0.02 0.01 0.01 0.01
0.01 0.02 0.02 0.01 0.01 0.00 0.01 0.01 0.02 0.02 0.02 0.01 0.02 0.01 0.02 0.02 0.02 0.02 0.03 0.05 0.08 0.08 0.06 0.06 0.08 0.12 0.15 0.12 0.10 0.08 0.06 0.05 0.06 0.06 0.07 0.09 0.10 0.09 0.10 0.10 0.10 0.12 0.12 0.08 0.05 0.02 0.01 0.01 0.01
0.01 0.01 0.01 0.01 0.01 0.01 0.01 0.01 0.02 0.01 0.01 0.01 0.01 0.01 0.01 0.01 0.02 0.02 0.03 0.04 0.06 0.08 0.07 0.07 0.07 0.10 0.15 0.16 0.12 0.09 0.07 0.05 0.05 0.05 0.06 0.08 0.10 0.11 0.11 0.13 0.13 0.12 0.12 0.09 0.05 0.03 0.01 0.01 0.01
0.01 0.01 0.00 0.00 0.01 0.01 0.01 0.01 0.02 0.01 0.01 0.01 0.01 0.01 0.01 0.02 0.02 0.02 0.03 0.04 0.05 0.06 0.06 0.07 0.07 0.08 0.11 0.13 0.11 0.09 0.07 0.05 0.04 0.04 0.04 0.05 0.07 0.09 0.10 0.11 0.12 0.12 0.11 0.10 0.06 0.03 0.03 0.02 0.01
0.01 0.01 0.00 0.00 0.00 0.01 0.01 0.01 0.02 0.02 0.01 0.01 0.01 0.01 0.01 0.02 0.02 0.02 0.02 0.03 0.04 0.04 0.04 0.05 0.07 0.08 0.09 0.10 0.10 0.09 0.07 0.06 0.04 0.04 0.05 0.06 0.07 0.08 0.09 0.11 0.13 0.14 0.16 0.15 0.13 0.10 0.06 0.04 0.04
0.01 0.00 0.00 0.01 0.01 0.01 0.01 0.02 0.03 0.02 0.02 0.01 0.01 0.01 0.01 0.01 0.01 0.02 0.02 0.03 0.04 0.04 0.04 0.04 0.05 0.07 0.09 0.09 0.09 0.10 0.10 0.08 0.06 0.05 0.06 0.08 0.10 0.12 0.13 0.14 0.16 0.19 0.19 0.17 0.15 0.14 0.12 0.10 0.09
0.01 0.00 0.00 0.01 0.01 0.01 0.02 0.04 0.03 0.03 0.02 0.01 0.01 0.01 0.01 0.01 0.01 0.01 0.02 0.03 0.04 0.04 0.04 0.04 0.05 0.07 0.08 0.08 0.08 0.08 0.10 0.09 0.06 0.07 0.07 0.08 0.10 0.13 0.14 0.13 0.14 0.14 0.14 0.13 0.10 0.08 0.07 0.07 0.07
0.00 0.00 0.01 0.01 0.01 0.01 0.01 0.03 0.02 0.03 0.02 0.01 0.01 0.02 0.02 0.01 0.01 0.01 0.02 0.02 0.02 0.03 0.03 0.04 0.04 0.06 0.06 0.07 0.07 0.07 0.09 0.10 0.08 0.07 0.08 0.08 0.09 0.10 0.11 0.11 0.12 0.13 0.13 0.11 0.11 0.09 0.07 0.06 0.05
0.01 0.01 0.01 0.01 0.02 0.02 0.01 0.02 0.02 0.02 0.03 0.02 0.02 0.03 0.03 0.02 0.01 0.01 0.01 0.02 0.02 0.03 0.03 0.03 0.04 0.05 0.06 0.07 0.06 0.07 0.08 0.09 0.08 0.07 0.08 0.09 0.09 0.10 0.10 0.10 0.10 0.11 0.12 0.12 0.12 0.11 0.09 0.07 0.04
0.01 0.01 0.01 0.01 0.02 0.01 0.01 0.01 0.01 0.01 0.04 0.04 0.03 0.04 0.04 0.03 0.02 0.01 0.01 0.02 0.02 0.03 0.04 0.04 0.04 0.05 0.05 0.06 0.06 0.06 0.06 0.07 0.07 0.08 0.08 0.10 0.10 0.10 0.11 0.10 0.10 0.09 0.07 0.07 0.07 0.07 0.08 0.08 0.06
0.01 0.01 0.01 0.01 0.01 0.01 0.01 0.01 0.01 0.02 0.03 0.03 0.03 0.03 0.03 0.04 0.03 0.02 0.02 0.02 0.02 0.03 0.04 0.05 0.05 0.05 0.05 0.06 0.05 0.05 0.06 0.07 0.07 0.08 0.09 0.09 0.10 0.08 0.07 0.08 0.08 0.08 0.07 0.06 0.06 0.07 0.07 0.08 0.07
0.01 0.01 0.01 0.01 0.01 0.01 0.01 0.01 0.01 0.02 0.01 0.01 0.02 0.02 0.02 0.03 0.03 0.02 0.02 0.02 0.02 0.03 0.04 0.04 0.04 0.06 0.06 0.06 0.06 0.05 0.07 0.08 0.08 0.08 0.10 0.09 0.09 0.09 0.07 0.08 0.09 0.10 0.09 0.08 0.07 0.08 0.08 0.08 0.08
0.01 0.01 0.01 0.01 0.01 0.01 0.01 0.01 0.02 0.03 0.02 0.01 0.01 0.02 0.02 0.02 0.03 0.03 0.03 0.03 0.03 0.04 0.04 0.04 0.03 0.05 0.08 0.07 0.06 0.06 0.08 0.08 0.08 0.09 0.12 0.09 0.08 0.08 0.07 0.07 0.08 0.09 0.09 0.08 0.07 0.07 0.07 0.07 0.07
0.01 0.02 0.01 0.01 0.01 0.01 0.01 0.01 0.03 0.04 0.03 0.02 0.01 0.02 0.04 0.03 0.05 0.05 0.04 0.05 0.05 0.04 0.04 0.04 0.04 0.04 0.07 0.09 0.07 0.07 0.08 0.08 0.09 0.09 0.12 0.13 0.10 0.07 0.06 0.06 0.07 0.08 0.07 0.08 0.08 0.07 0.07 0.07 0.07
0.01 0.01 0.01 0.01 0.01 0.01 0.01 0.01 0.02 0.03 0.03 0.02 0.02 0.02 0.04 0.05 0.06 0.07 0.06 0.06 0.05 0.05 0.05 0.05 0.04 0.04 0.06 0.09 0.09 0.07 0.09 0.10 0.11 0.11 0.11 0.14 0.15 0.11 0.08 0.07 0.07 0.07 0.06 0.06 0.07 0.07 0.07 0.07 0.07
MSLP
1017.43 1017.46 1017.58 1017.75 1017.93 1018.05 1018.09 1017.99 1017.77 1017.44 1017.04 1016.61 1016.20 1015.82 1015.49 1015.20 1014.95 1014.74 1014.58 1014.48 1014.48 1014.60 1014.85 1015.24 1015.72 1016.25 1016.77 1017.23 1017.58 1017.82 1017.97 1018.06 1018.14 1018.24 1018.38 1018.56 1018.75 1018.93 1019.05 1019.11 1019.10 1019.06 1019.01 1019.01 1019.06 1019.18 1019.36 1019.54 1019.69
1017.67 1017.68 1017.77 1017.91 1018.04 1018.11 1018.08 1017.92 1017.65 1017.27 1016.85 1016.41 1016.00 1015.63 1015.32 1015.05 1014.83 1014.65 1014.51 1014.43 1014.46 1014.60 1014.87 1015.27 1015.76 1016.29 1016.80 1017.24 1017.59 1017.83 1017.99 1018.10 1018.21 1018.35 1018.54 1018.77 1019.01 1019.21 1019.35 1019.40 1019.38 1019.31 1019.25 1019.23 1019.29 1019.44 1019.65 1019.89 1020.09
1017.87 1017.85 1017.90 1017.99 1018.06 1018.06 1017.97 1017.75 1017.43 1017.04 1016.60 1016.17 1015.78 1015.45 1015.18 1014.95 1014.77 1014.62 1014.51 1014.47 1014.51 1014.67 1014.96 1015.35 1015.84 1016.35 1016.85 1017.27 1017.60 1017.83 1018.00 1018.12 1018.26 1018.45 1018.68 1018.95 1019.23 1019.46 1019.61 1019.66 1019.63 1019.55 1019.47 1019.44 1019.49 1019.65 1019.89 1020.17 1020.42
1018.03 1017.99 1018.01 1018.04 1018.05 1017.99 1017.83 1017.57 1017.21 1016.80 1016.37 1015.96 1015.61 1015.33 1015.10 1014.92 1014.78 1014.67 1014.60 1014.58 1014.64 1014.81 1015.10 1015.49 1015.96 1016.46 1016.93 1017.33 1017.64 1017.86 1018.02 1018.16 1018.31 1018.52 1018.79 1019.09 1019.40 1019.66 1019.84 1019.91 1019.88 1019.80 1019.71 1019.67 1019.72 1019.87 1020.12 1020.42 1020.70
1018.18 1018.14 1018.13 1018.13 1018.08 1017.96 1017.74 1017.43 1017.05 1016.62 1016.20 1015.83 1015.51 1015.28 1015.10 1014.97 1014.87 1014.79 1014.75 1014.75 1014.83 1015.01 1015.29 1015.68 1016.13 1016.61 1017.06 1017.44 1017.73 1017.94 1018.09 1018.22 1018.38 1018.60 1018.87 1019.20 1019.53 1019.82 1020.03 1020.13 1020.14 1020.07 1020.00 1019.96 1020.00 1020.14 1020.38 1020.67 1020.97
1018.35 1018.32 1018.31 1018.28 1018.19 1018.02 1017.75 1017.40 1016.98 1016.54 1016.13 1015.78 1015.50 1015.30 1015.17 1015.08 1015.02 1014.97 1014.94 1014.96 1015.04 1015.22 1015.50 1015.87 1016.31 1016.77 1017.21 1017.58 1017.86 1018.06 1018.21 1018.33 1018.48 1018.69 1018.97 1019.29 1019.64 1019.95 1020.20 1020.35 1020.40 1020.38 1020.34 1020.31 1020.35 1020.48 1020.69 1020.96 1021.24
1018.56 1018.55 1018.55 1018.50 1018.38 1018.17 1017.85 1017.45 1017.00 1016.55 1016.14 1015.81 1015.56 1015.40 1015.30 1015.25 1015.21 1015.18 1015.17 1015.18 1015.26 1015.42 1015.68 1016.04 1016.46 1016.91 1017.34 1017.72 1018.01 1018.22 1018.37 1018.49 1018.63 1018.83 1019.08 1019.39 1019.73 1020.06 1020.34 1020.54 1020.65 1020.69 1020.70 1020.71 1020.76 1020.86 1021.04 1021.26 1021.50
1018.82 1018.84 1018.84 1018.78 1018.62 1018.36 1017.99 1017.54 1017.06 1016.60 1016.19 1015.88 1015.66 1015.53 1015.47 1015.44 1015.43 1015.41 1015.40 1015.41 1015.46 1015.60 1015.83 1016.16 1016.56 1017.00 1017.43 1017.82 1018.14 1018.37 1018.55 1018.68 1018.82 1018.99 1019.22 1019.50 1019.82 1020.14 1020.44 1020.68 1020.86 1020.97 1021.04 1021.09 1021.15 1021.25 1021.39 1021.56 1021.75
1019.13 1019.16 1019.15 1019.06 1018.86 1018.54 1018.12 1017.63 1017.12 1016.65 1016.26 1015.97 1015.78 1015.69 1015.67 1015.67 1015.68 1015.67 1015.65 1015.63 1015.65 1015.74 1015.93 1016.21 1016.57 1016.99 1017.43 1017.84 1018.19 1018.48 1018.69 1018.86 1019.01 1019.17 1019.37 1019.61 1019.89 1020.19 1020.49 1020.76 1020.99 1021.16 1021.29 1021.39 1021.49 1021.58 1021.69 1021.81 1021.95
1019.46 1019.49 1019.45 1019.30 1019.04 1018.66 1018.19 1017.66 1017.14 1016.68 1016.32 1016.07 1015.94 1015.90 1015.92 1015.95 1015.98 1015.97 1015.93 1015.88 1015.85 1015.88 1015.99 1016.20 1016.50 1016.89 1017.31 1017.74 1018.13 1018.48 1018.76 1018.98 1019.16 1019.33 1019.51 1019.71 1019.95 1020.21 1020.49 1020.76 1021.02 1021.24 1021.43 1021.59 1021.72 1021.82 1021.92 1022.01 1022.10
1019.82 1019.81 1019.71 1019.50 1019.16 1018.71 1018.19 1017.65 1017.14 1016.71 1016.40 1016.22 1016.15 1016.18 1016.25 1016.32 1016.37 1016.36 1016.29 1016.20 1016.10 1016.04 1016.05 1016.16 1016.38 1016.69 1017.08 1017.51 1017.94 1018.34 1018.69 1018.98 1019.22 1019.42 1019.60 1019.78 1019.98 1020.20 1020.44 1020.70 1020.96 1021.22 1021.45 1021.66 1021.83 1021.96 1022.06 1022.14 1022.21
1020.20 1020.13 1019.95 1019.65 1019.23 1018.73 1018.17 1017.64 1017.16 1016.80 1016.57 1016.47 1016.49 1016.59 1016.72 1016.83 1016.88 1016.86 1016.77 1016.61 1016.43 1016.27 1016.16 1016.14 1016.24 1016.45 1016.77 1017.17 1017.60 1018.05 1018.47 1018.84 1019.15 1019.40 1019.61 1019.79 1019.97 1020.15 1020.35 1020.58 1020.84 1021.11 1021.37 1021.62 1021.84 1022.01 1022.14 1022.23 1022.29
1020.61 1020.46 1020.19 1019.80 1019.31 1018.76 1018.20 1017.70 1017.29 1017.02 1016.90 1016.91 1017.02 1017.19 1017.36 1017.50 1017.56 1017.52 1017.38 1017.15 1016.88 1016.60 1016.36 1016.19 1016.14 1016.23 1016.43 1016.76 1017.17 1017.62 1018.09 1018.54 1018.93 1019.26 1019.53 1019.73 1019.91 1020.07 1020.24 1020.45 1020.68 1020.95 1021.24 1021.52 1021.78 1022.00 1022.16 1022.29 1022.37
1021.06 1020.84 1020.48 1020.01 1019.46 1018.89 1018.36 1017.92 1017.62 1017.47 1017.46 1017.58 1017.78 1018.01 1018.21 1018.35 1018.39 1018.31 1018.12 1017.82 1017.46 1017.06 1016.68 1016.37 1016.15 1016.07 1016.14 1016.34 1016.68 1017.11 1017.59 1018.09 1018.56 1018.97 1019.32 1019.58 1019.79 1019.96 1020.13 1020.31 1020.53 1020.79 1021.09 1021.39 1021.69 1021.95 1022.17 1022.33 1022.45
1021.59 1021.29 1020.86 1020.32 1019.74 1019.18 1018.70 1018.36 1018.17 1018.15 1018.27 1018.49 1018.76 1019.01 1019.22 1019.33 1019.33 1019.19 1018.94 1018.57 1018.12 1017.63 1017.13 1016.67 1016.29 1016.04 1015.94 1016.00 1016.21 1016.57 1017.03 1017.54 1018.07 1018.56 1018.98 1019.33 1019.60 1019.81 1019.99 1020.18 1020.40 1020.65 1020.95 1021.26 1021.59 1021.89 1022.15 1022.35 1022.52
1022.18 1021.82 1021.33 1020.75 1020.16 1019.64 1019.23 1019.00 1018.94 1019.05 1019.28 1019.57 1019.88 1020.13 1020.31 1020.36 1020.29 1020.08 1019.76 1019.33 1018.82 1018.25 1017.66 1017.09 1016.57 1016.15 1015.88 1015.76 1015.83 1016.07 1016.45 1016.94 1017.48 1018.03 1018.53 1018.96 1019.31 1019.59 1019.82 1020.04 1020.26 1020.52 1020.81 1021.14 1021.48 1021.80 1022.09 1022.34 1022.53
1022.83 1022.41 1021.87 1021.27 1020.69 1020.21 1019.89 1019.76 1019.82 1020.04 1020.36 1020.70 1021.02 1021.24 1021.35 1021.33 1021.17 1020.88 1020.49 1020.01 1019.47 1018.86 1018.22 1017.58 1016.96 1016.40 1015.96 1015.68 1015.57 1015.65 1015.91 1016.33 1016.85 1017.41 1017.97 1018.48 1018.92 1019.28 1019.58 1019.84 1020.10 1020.37 1020.67 1020.99 1021.33 1021.67 1021.98 1022.25 1022.46
1023.49 1023.02 1022.44 1021.82 1021.25 1020.82 1020.57 1020.54 1020.70 1021.00 1021.37 1021.73 1022.03 1022.20 1022.22 1022.10 1021.85 1021.49 1021.05 1020.55 1019.99 1019.39 1018.74 1018.07 1017.40 1016.75 1016.18 1015.73 1015.45 1015.36 1015.46 1015.76 1016.21 1016.74 1017.32 1017.89 1018.40 1018.85 1019.23 1019.56 1019.86 1020.15 1020.46 1020.79 1021.13 1021.47 1021.78 1022.06 1022.28
1024.12 1023.60 1022.97 1022.33 1021.77 1021.37 1021.18 1021.20 1021.42 1021.76 1022.16 1022.51 1022.77 1022.88 1022.82 1022.61 1022.27 1021.85 1021.37 1020.87 1020.33 1019.77 1019.16 1018.52 1017.83 1017.14 1016.48 1015.90 1015.46 1015.19 1015.13 1015.27 1015.60 1016.07 1016.63 1017.21 1017.78 1018.30 1018.75 1019.15 1019.51 1019.85 1020.18 1020.51 1020.85 1021.18 1021.49 1021.76 1021.98
1024.67 1024.10 1023.44 1022.77 1022.20 1021.80 1021.61 1021.65 1021.88 1022.23 1022.61 1022.94 1023.15 1023.20 1023.08 1022.80 1022.41 1021.94 1021.46 1020.96 1020.47 1019.97 1019.44 1018.85 1018.21 1017.52 1016.82 1016.15 1015.57 1015.15 1014.91 1014.89 1015.07 1015.43 1015.92 1016.49 1017.07 1017.64 1018.16 1018.63 1019.05 1019.43 1019.79 1020.14 1020.49 1020.81 1021.11 1021.37 1021.58
1025.15 1024.53 1023.82 1023.11 1022.50 1022.07 1021.85 1021.85 1022.05 1022.36 1022.70 1022.99 1023.16 1023.16 1023.00 1022.69 1022.27 1021.80 1021.33 1020.87 1020.43 1020.01 1019.56 1019.06 1018.48 1017.83 1017.13 1016.42 1015.76 1015.20 1014.81 1014.62 1014.65 1014.88 1015.26 1015.77 1016.33 1016.92 1017.48 1018.01 1018.49 1018.92 1019.32 1019.70 1020.05 1020.38 1020.68 1020.94 1021.15
1025.56 1024.90 1024.15 1023.40 1022.74 1022.24 1021.94 1021.86 1021.97 1022.20 1022.47 1022.71 1022.84 1022.83 1022.66 1022.35 1021.95 1021.50 1021.05 1020.64 1020.26 1019.90 1019.54 1019.13 1018.64 1018.05 1017.39 1016.68 1015.97 1015.33 1014.82 1014.48 1014.35 1014.43 1014.69 1015.10 1015.61 1016.18 1016.77 1017.33 1017.86 1018.35 1018.79 1019.21 1019.59 1019.93 1020.24 1020.51 1020.72
1025.94 1025.27 1024.51 1023.72 1022.99 1022.40 1021.99 1021.78 1021.75 1021.86 1022.05 1022.22 1022.32 1022.30 1022.16 1021.89 1021.53 1021.13 1020.73 1020.36 1020.02 1019.72 1019.42 1019.08 1018.67 1018.16 1017.56 1016.88 1016.17 1015.49 1014.89 1014.44 1014.17 1014.10 1014.22 1014.52 1014.96 1015.48 1016.06 1016.64 1017.21 1017.75 1018.25 1018.70 1019.12 1019.50 1019.83 1020.12 1020.36
1026.35 1025.71 1024.95 1024.15 1023.36 1022.66 1022.11 1021.73 1021.54 1021.50 1021.56 1021.65 1021.71 1021.70 1021.60 1021.39 1021.10 1020.76 1020.41 1020.07 1019.77 1019.50 1019.24 1018.95 1018.60 1018.17 1017.63 1017.01 1016.33 1015.64 1015.00 1014.46 1014.07 1013.87 1013.87 1014.05 1014.39 1014.85 1015.40 1015.98 1016.58 1017.16 1017.71 1018.21 1018.68 1019.10 1019.47 1019.80 1020.08
1026.81 1026.25 1025.54 1024.73 1023.90 1023.10 1022.40 1021.84 1021.44 1021.22 1021.12 1021.11 1021.13 1021.12 1021.05 1020.91 1020.70 1020.43 1020.13 1019.83 1019.54 1019.28 1019.03 1018.77 1018.46 1018.08 1017.61 1017.05 1016.42 1015.75 1015.09 1014.50 1014.03 1013.72 1013.59 1013.66 1013.90 1014.29 1014.79 1015.37 1015.98 1016.60 1017.19 1017.75 1018.27 1018.74 1019.16 1019.54 1019.87
1027.35 1026.89 1026.26 1025.49 1024.62 1023.73 1022.88 1022.12 1021.52 1021.09 1020.81 1020.67 1020.62 1020.60 1020.57 1020.49 1020.35 1020.14 1019.89 1019.62 1019.34 1019.07 1018.81 1018.54 1018.25 1017.90 1017.49 1016.99 1016.41 1015.78 1015.13 1014.51 1013.98 1013.59 1013.36 1013.32 1013.46 1013.78 1014.23 1014.79 1015.41 1016.06 1016.70 1017.31 1017.88 1018.41 1018.88 1019.31 1019.70
1027.93 1027.59 1027.05 1026.33 1025.46 1024.49 1023.50 1022.56 1021.74 1021.09 1020.63 1020.34 1020.20 1020.14 1020.12 1020.09 1020.01 1019.87 1019.67 1019.42 1019.14 1018.86 1018.58 1018.30 1018.00 1017.67 1017.29 1016.83 1016.30 1015.70 1015.07 1014.45 1013.88 1013.42 1013.11 1012.98 1013.04 1013.29 1013.70 1014.24 1014.86 1015.53 1016.21 1016.87 1017.49 1018.07 1018.61 1019.09 1019.54
1028.47 1028.25 1027.81 1027.15 1026.28 1025.25 1024.14 1023.03 1022.02 1021.17 1020.52 1020.08 1019.83 1019.72 1019.69 1019.69 1019.67 1019.58 1019.43 1019.21 1018.94 1018.65 1018.34 1018.04 1017.73 1017.40 1017.02 1016.59 1016.09 1015.52 1014.91 1014.28 1013.68 1013.17 1012.80 1012.60 1012.60 1012.79 1013.16 1013.68 1014.31 1015.00 1015.71 1016.41 1017.09 1017.72 1018.30 1018.85 1019.35
1028.90 1028.76 1028.39 1027.77 1026.90 1025.83 1024.63 1023.39 1022.21 1021.19 1020.38 1019.80 1019.45 1019.28 1019.24 1019.26 1019.27 1019.24 1019.14 1018.96 1018.71 1018.42 1018.10 1017.78 1017.45 1017.10 1016.73 1016.30 1015.81 1015.25 1014.63 1013.99 1013.38 1012.84 1012.42 1012.17 1012.12 1012.27 1012.61 1013.12 1013.75 1014.46 1015.20 1015.94 1016.66 1017.34 1017.97 1018.56 1019.12
1029.13 1029.01 1028.67 1028.06 1027.18 1026.07 1024.81 1023.49 1022.21 1021.07 1020.14 1019.46 1019.03 1018.81 1018.75 1018.79 1018.84 1018.86 1018.81 1018.67 1018.46 1018.18 1017.87 1017.53 1017.18 1016.82 1016.42 1015.98 1015.47 1014.90 1014.28 1013.63 1012.99 1012.42 1011.98 1011.70 1011.61 1011.74 1012.06 1012.56 1013.20 1013.92 1014.69 1015.46 1016.22 1016.93 1017.61 1018.24 1018.84
Thickness
5688 5691 5695 5695 5690 5687 5692 5702 5705 5705 5707 5711 5713 5716 5719 5720 5718 5714 5717 5723 5724 5724 5724 5722 5722 5723 5724 5724 5724 5724 5724 5725 5725 5724 5723 5722 5722 5721 5721 5720 5720 5719 5719 5718 5718 5717 5716 5716 5715
5681 5684 5685 5683 5680 5681 5689 5698 5697 5700 5701 5703 5705 5708 5710 5711 5712 5711 5712 5715 5718 5719 5719 5718 5717 5718 5719 5720 5720 5720 5720 5720 5720 5720 5719 5718 5718 5717 5716 5716 5716 5715 5714 5714 5713 5713 5712 5711 5711
5674 5677 5675 5673 5673 5683 5688 5691 5692 5692 5694 5695 5697 5700 5702 5703 5703 5704 5706 5709 5712 5713 5714 5713 5712 5713 5713 5714 5715 5715 5715 5716 5716 5715 5715 5714 5713 5713 5712 5711 5711 5710 5710 5709 5708 5708 5707 5707 5706
5667 5666 5665 5663 5667 5675 5679 5681 5682 5682 5685 5688 5691 5692 5694 5695 5696 5698 5700 5703 5706 5708 5708 5707 5706 5707 5708 5709 5709 5710 5710 5710 5711 5710 5710 5709 5709 5708 5707 5707 5706 5705 5705 5704 5703 5702 5702 5701 5701
5658 5657 5654 5655 5661 5666 5668 5670 5672 5675 5678 5680 5683 5686 5687 5688 5690 5691 5694 5697 5699 5701 5702 5702 5700 5701 5702 5703 5703 5704 5705 5705 5705 5705 5705 5704 5703 5702 5702 5701 5701 5700 5699 5699 5698 5697 5696 5696 5696
5647 5648 5648 5653 5655 5657 5660 5660 5662 5667 5671 5672 5674 5678 5681 5682 5683 5684 5687 5689 5692 5693 5694 5695 5695 5695 5696 5697 5697 5699 5699 5699 5700 5699 5699 5698 5698 5696 5696 5695 5695 5694 5693 5693 5692 5691 5690 5690 5689
5639 5640 5643 5648 5647 5649 5651 5652 5655 5659 5662 5663 5665 5668 5674 5675 5676 5678 5680 5683 5684 5685 5687 5688 5688 5689 5689 5691 5691 5692 5692 5693 5693 5693 5692 5692 5691 5690 5689 5689 5688 5687 5686 5686 5685 5685 5684 5683 5682
5632 5633 5633 5637 5639 5641 5641 5642 5644 5648 5651 5653 5655 5660 5664 5665 5667 5670 5673 5675 5676 5678 5679 5680 5681 5682 5683 5684 5686 5686 5686 5686 5686 5686 5686 5685 5684 5683 5683 5682 5681 5680 5679 5678 5677 5677 5676 5675 5675
5623 5622 5625 5629 5630 5631 5629 5631 5633 5634 5638 5641 5645 5649 5652 5655 5658 5660 5663 5666 5668 5669 5670 5671 5673 5675 5677 5678 5678 5678 5678 5678 5678 5678 5678 5678 5677 5676 5675 5674 5673 5672 5671 5670 5669 5669 5668 5667 5667
5614 5615 5617 5617 5619 5620 5618 5620 5622 5626 5629 5632 5636 5639 5641 5645 5648 5651 5654 5656 5658 5659 5661 5662 5664 5666 5669 5671 5671 5671 5672 5671 5672 5672 5671 5670 5670 5669 5667 5666 5664 5663 5662 5662 5661 5661 5660 5660 5661
5604 5605 5605 5604 5605 5607 5608 5609 5612 5617 5621 5625 5626 5629 5631 5634 5638 5642 5645 5646 5648 5650 5651 5654 5656 5658 5660 5662 5663 5663 5664 5664 5663 5664 5663 5662 5662 5660 5659 5658 5656 5656 5655 5655 5653 5653 5654 5654 5655
5593 5592 5593 5594 5594 5596 5598 5600 5603 5605 5611 5614 5615 5617 5620 5624 5628 5632 5635 5637 5639 5641 5643 5645 5647 5649 5650 5652 5654 5654 5654 5655 5654 5654 5654 5654 5653 5653 5652 5651 5650 5650 5650 5648 5648 5648 5647 5647 5648
5586 5584 5584 5584 5585 5587 5589 5591 5594 5598 5600 5603 5605 5608 5611 5614 5618 5621 5625 5628 5630 5632 5634 5636 5638 5640 5641 5642 5643 5644 5645 5645 5645 5644 5644 5644 5644 5645 5644 5644 5643 5643 5644 5643 5641 5640 5640 5640 5640
5577 5577 5578 5579 5580 5581 5582 5586 5587 5593 5593 5595 5597 5600 5602 5605 5607 5611 5614 5618 5621 5622 5625 5627 5628 5630 5631 5632 5633 5634 5635 5635 5636 5636 5635 5635 5635 5635 5636 5637 5636 5637 5637 5637 5635 5634 5632 5632 5633
5569 5570 5575 5575 5575 5575 5576 5583 5584 5586 5585 5588 5590 5592 5594 5595 5597 5600 5604 5607 5610 5612 5614 5616 5618 5619 5621 5622 5622 5623 5624 5625 5626 5626 5626 5626 5626 5627 5627 5629 5629 5630 5630 5629 5628 5627 5625 5625 5626
5565 5568 5572 5571 5569 5569 5570 5579 5583 5579 5579 5581 5583 5585 5587 5588 5589 5590 5593 5595 5598 5601 5603 5605 5606 5609 5610 5610 5611 5612 5613 5614 5615 5615 5616 5617 5617 5618 5618 5621 5621 5621 5621 5621 5621 5620 5619 5618 5619
5563 5565 5567 5566 5562 5563 5564 5570 5575 5572 5572 5574 5575 5577 5578 5580 5581 5582 5583 5585 5587 5589 5591 5593 5595 5597 5598 5599 5600 5600 5602 5603 5604 5605 5607 5608 5608 5609 5610 5613 5614 5613 5613 5614 5613 5612 5612 5612 5612
5561 5562 5560 5559 5556 5555 5557 5562 5568 5566 5565 5567 5568 5569 5570 5572 5573 5573 5573 5575 5576 5578 5579 5581 5583 5584 5585 5587 5589 5589 5591 5592 5594 5595 5597 5598 5599 5600 5601 5604 5605 5605 5605 5606 5606 5604 5605 5605 5605
5549 5549 5550 5550 5544 5544 5551 5556 5561 5560 5558 5560 5561 5563 5563 5564 5563 5562 5563 5564 5566 5567 5569 5570 5571 5573 5574 5576 5578 5579 5581 5583 5584 5585 5586 5587 5589 5590 5592 5595 5596 5597 5597 5598 5598 5598 5598 5598 5597
5537 5540 5543 5541 5537 5538 5544 5549 5553 5553 5552 5553 5554 5555 5555 5555 5555 5553 5553 5554 5555 5557 5559 5561 5561 5562 5564 5565 5567 5568 5569 5571 5573 5574 5576 5578 5580 5581 5583 5585 5587 5588 5589 5589 5590 5590 5591 5590 5589
5531 5534 5535 5532 5532 5532 5533 5551 5553 5550 5548 5547 5547 5547 5547 5546 5545 5545 5545 5545 5545 5547 5549 5550 5551 5552 5553 5554 5555 5556 5557 5560 5563 5565 5566 5569 5572 5573 5574 5576 5578 5579 5580 5581 5582 5583 5583 5584 5582
5528 5524 5521 5519 5522 5532 5526 5542 5554 5546 5544 5544 5544 5542 5541 5539 5538 5537 5537 5537 5536 5537 5537 5538 5540 5541 5543 5544 5545 5547 5550 5553 5556 5557 5558 5560 5563 5564 5565 5567 5569 5570 5571 5572 5573 5574 5575 5577 5577
5516 5512 5512 5512 5512 5513 5520 5518 5549 5541 5540 5541 5539 5537 5534 5532 5530 5528 5528 5528 5527 5526 5527 5528 5529 5530 5532 5534 5535 5537 5540 5543 5545 5546 5548 5550 5551 5554 5556 5558 5559 5561 5562 5563 5565 5566 5567 5568 5569
5504 5507 5508 5508 5510 5512 5518 5520 5544 5540 5536 5536 5532 5529 5526 5524 5521 5520 5519 5518 5518 5518 5518 5518 5519 5521 5522 5524 5526 5528 5530 5532 5534 5536 5537 5539 5540 5544 5546 5548 5549 5551 5552 5554 5556 5557 5558 5559 5560
5500 5508 5519 5522 5521 5529 5513 5513 5532 5532 5525 5522 5520 5519 5517 5514 5512 5510 5509 5509 5508 5508 5508 5510 5511 5512 5513 5515 5516 5517 5519 5522 5524 5526 5527 5528 5529 5532 5535 5537 5540 5542 5543 5545 5547 5548 5549 5550 5550
5494 5499 5510 5520 5530 5533 5511 5516 5533 5521 5514 5511 5508 5508 5507 5506 5504 5500 5499 5498 5497 5497 5498 5500 5502 5503 5504 5505 5506 5507 5508 5510 5512 5513 5515 5516 5518 5521 5523 5526 5529 5532 5534 5536 5538 5540 5540 5540 5541
5491 5491 5488 5492 5487 5498 5522 5522 5523 5514 5511 5506 5503 5500 5499 5498 5495 5492 5491 5490 5490 5489 5490 5492 5493 5494 5495 5496 5497 5497 5498 5500 5501 5502 5503 5505 5507 5509 5513 5516 5519 5522 5524 5526 5528 5531 5532 5532 5533
5482 5482 5480 5485 5495 5513 5526 5523 5525 5514 5508 5502 5498 5495 5493 5491 5489 5485 5483 5482 5482 5483 5484 5485 5486 5487 5487 5487 5487 5487 5490 5491 5491 5491 5492 5494 5496 5499 5503 5507 5510 5513 5515 5516 5519 5522 5522 5524 5525
5472 5470 5473 5479 5482 5498 5512 5527 5517 5507 5498 5491 5490 5487 5484 5483 5481 5479 5478 5476 5476 5477 5478 5478 5479 5479 5479 5479 5479 5480 5482 5482 5482 5481 5483 5485 5488 5491 5495 5499 5503 5505 5506 5507 5510 5512 5514 5515 5516
5465 5470 5471 5479 5475 5473 5489 5512 5505 5496 5489 5483 5482 5479 5477 5476 5474 5474 5473 5471 5471 5471 5471 5471 5472 5472 5471 5471 5472 5473 5473 5473 5473 5473 5475 5476 5480 5483 5486 5490 5494 5496 5498 5499 5501 5504 5505 5506 5507